Orbital Elements at Epoch 2459200.5 (2020-Dec-17.0) TDB
Reference: JPL 28 (heliocentric ecliptic J2000)
Element | Value | Uncertainty (1-sigma) | Units |
e | .1487747697782598 | 3.3931e-08 | |
a | 3.139981435974467 | 1.492e-08 | au |
q | 2.672831420729356 | 1.1281e-07 | au |
i | 1.161119015731726 | 4.2437e-06 | deg |
node | 195.943243571861 | 0.00016006 | deg |
peri | 255.6919780741978 | 0.00016079 | deg |
M | 331.0268336077534 | 1.3787e-05 | deg |
tp | 2459364.062035778406 (2021-May-29.56203578) | 7.7965e-05 | TDB |
period | 2032.305757785023 5.56 | 1.4485e-05 3.966e-08 | d yr |
n | .1771387000312188 | 1.2625e-09 | deg/d |
Q | 3.607131451219578 | 1.714e-08 | au |
|
| | Orbit Determination Parameters
Additional Information
|